Simultaneous Nadir Overpasses (SNOs) Predictions

Prediction of SNOs between AQUA and NOAA-19 Satellite Orbit:

Table of predicted SNOs for the next 14.0 days since TLE Epoch: 3/24/2017
Index Date (AQUA) Time (AQUA) Lat,Lon (AQUA) SZA (AQUA ) Date (NOAA-19) Time (NOAA-19) Lat,Lon (NOAA-19) SZA (NOAA-19 ) Distance(km) Time Diff (sec)
1 03/25/2017 07:01:12 -80.96,-145.76 98.66 03/25/2017 07:00:01 -80.96,-145.91 98.61 2.61 71
2 03/25/2017 07:50:38 80.95, 22.00 81.31 03/25/2017 07:51:05 80.95, 21.88 81.32 2.14 27
3 03/27/2017 12:34:57 80.95, -49.08 80.44 03/27/2017 12:33:57 80.96, -49.11 80.47 0.75 60
4 03/27/2017 13:24:24 -80.96, 118.50 99.57 03/27/2017 13:24:53 -80.96, 118.37 99.57 2.38 29
5 03/29/2017 18:08:43 -80.96, 47.40 100.44 03/29/2017 18:07:45 -80.96, 47.49 100.42 1.67 58
6 03/29/2017 18:58:09 80.95,-144.88 79.54 03/29/2017 18:58:49 80.96,-145.02 79.54 2.50 40
7 03/31/2017 23:42:27 80.96, 143.95 78.69 03/31/2017 23:41:40 80.96, 143.90 78.72 0.94 47
8 04/01/2017 00:31:54 -80.96, -48.43 101.32 04/01/2017 00:32:36 -80.95, -48.28 101.36 2.79 42
9 04/03/2017 05:16:13 -80.97,-119.63 102.16 04/03/2017 05:15:29 -80.96,-119.58 102.15 1.64 44
10 04/03/2017 06:05:38 80.94, 48.41 77.77 04/03/2017 06:06:31 80.95, 48.28 77.77 2.66 53
11 04/05/2017 10:49:57 80.95, -22.85 76.95 04/05/2017 10:49:23 80.96, -22.87 76.97 0.61 34
12 04/05/2017 11:39:24 -80.95, 144.79 103.07 04/05/2017 11:40:20 -80.95, 144.97 103.11 3.12 56
13 04/07/2017 16:23:43 -80.97, 73.49
